When you browse on this site, cookies collect data to enhance your experience and personalize the content and advertising you see.
Visit our Privacy Policy to learn more. By continuing to use the site, you agree to this use of cookies and data.
  • In Netherlands
  • List of Countries
  • For 7 days
  • Water Temperature
  • Satellite Maps
  • Weather Map
  • Weather Widgets
  • user-avatar
    Login

    Hourly Weather Chełmża

    Today, 23 April, Tuesday

    Time Temperature Precipitation Wind Pressure Humidity
    00:00 +9°C° 0 mm 5 mps 759 mmHg 58%
    01:00 +8°C° 0 mm 5 mps 759 mmHg 56%
    02:00 +8°C° 0 mm 5 mps 759 mmHg 55%
    03:00 +8°C° 0 mm 5 mps 759 mmHg 54%
    04:00 +7°C° 0 mm 6 mps 758 mmHg 53%
    05:00 +9°C° 0 mm 7 mps 758 mmHg 50%
    06:00 +10°C° 0 mm 8 mps 758 mmHg 48%
    07:00 +11°C° 0 mm 9 mps 758 mmHg 44%
    08:00 +12°C° 0 mm 9 mps 758 mmHg 41%
    09:00 +13°C° 0 mm 10 mps 758 mmHg 38%
    10:00 +14°C° 0 mm 11 mps 757 mmHg 35%
    11:00 +16°C° 0 mm 11 mps 757 mmHg 36%
    12:00 +17°C° 0 mm 11 mps 757 mmHg 36%
    13:00 +17°C° 0 mm 11 mps 756 mmHg 36%
    14:00 +17°C° 0 mm 11 mps 756 mmHg 37%
    15:00 +17°C° 0 mm 10 mps 755 mmHg 38%
    16:00 +17°C° 0 mm 10 mps 755 mmHg 40%
    17:00 +16°C° 0 mm 9 mps 755 mmHg 43%
    18:00 +15°C° 0 mm 8 mps 755 mmHg 46%
    19:00 +14°C° 0 mm 7 mps 755 mmHg 49%
    20:00 +12°C° 0 mm 7 mps 755 mmHg 48%
    21:00 +12°C° 0 mm 7 mps 755 mmHg 48%
    22:00 +12°C° 0 mm 8 mps 755 mmHg 47%
    23:00 +11°C° 0 mm 8 mps 754 mmHg 49%

    Tomorrow, 24 April, Wednesday

    Time Temperature Precipitation Wind Pressure Humidity
    00:00 +11°C° 0 mm 8 mps 754 mmHg 51%
    01:00 +11°C° 0 mm 8 mps 754 mmHg 52%
    02:00 +10°C° 0 mm 8 mps 754 mmHg 53%
    03:00 +10°C° 0 mm 8 mps 754 mmHg 54%
    04:00 +10°C° 0 mm 8 mps 754 mmHg 55%
    05:00 +10°C° 0 mm 8 mps 754 mmHg 55%
    06:00 +11°C° 0 mm 8 mps 754 mmHg 55%
    07:00 +11°C° 0 mm 9 mps 754 mmHg 55%
    08:00 +13°C° 0 mm 9 mps 754 mmHg 53%
    09:00 +15°C° 0 mm 9 mps 754 mmHg 52%
    10:00 +16°C° 0 mm 9 mps 754 mmHg 51%
    11:00 +17°C° 0 mm 9 mps 753 mmHg 50%
    12:00 +18°C° 0 mm 9 mps 753 mmHg 49%
    13:00 +19°C° 0 mm 9 mps 753 mmHg 47%
    14:00 +20°C° 0 mm 8 mps 753 mmHg 50%
    15:00 +20°C° 0 mm 7 mps 753 mmHg 53%
    16:00 +19°C° 0 mm 6 mps 753 mmHg 56%
    17:00 +19°C° 0 mm 6 mps 753 mmHg 59%
    18:00 +17°C° 0 mm 6 mps 753 mmHg 61%
    19:00 +16°C° 0 mm 5 mps 753 mmHg 64%
    20:00 +15°C° 0 mm 5 mps 753 mmHg 67%
    21:00 +14°C° 0 mm 5 mps 753 mmHg 69%
    22:00 +14°C° 0 mm 5 mps 753 mmHg 72%
    23:00 +13°C° 0 mm 5 mps 753 mmHg 74%

    Day after tomorrow, 25 April, Thursday

    Time Temperature Precipitation Wind Pressure Humidity
    00:00 +13°C° 0 mm 5 mps 753 mmHg 77%
    01:00 +13°C° 0 mm 5 mps 753 mmHg 80%
    02:00 +13°C° 0 mm 5 mps 753 mmHg 80%
    03:00 +13°C° 0 mm 5 mps 753 mmHg 80%
    04:00 +13°C° 0 mm 5 mps 753 mmHg 81%
    05:00 +14°C° 0 mm 5 mps 753 mmHg 79%
    06:00 +14°C° 0 mm 5 mps 753 mmHg 77%
    07:00 +15°C° 0 mm 5 mps 753 mmHg 75%
    08:00 +17°C° 0 mm 5 mps 753 mmHg 69%
    09:00 +20°C° 0 mm 5 mps 753 mmHg 63%
    10:00 +21°C° 0 mm 5 mps 753 mmHg 57%
    11:00 +22°C° 0 mm 4 mps 753 mmHg 54%
    12:00 +23°C° 0 mm 4 mps 753 mmHg 51%
    13:00 +25°C° 0 mm 4 mps 753 mmHg 48%
    14:00 +25°C° 0 mm 4 mps 753 mmHg 49%
    15:00 +25°C° 0 mm 3 mps 753 mmHg 49%
    16:00 +25°C° 0 mm 3 mps 753 mmHg 50%
    17:00 +24°C° 0 mm 3 mps 753 mmHg 56%
    18:00 +21°C° 0 mm 2 mps 753 mmHg 62%
    19:00 +19°C° 0 mm 2 mps 753 mmHg 68%
    20:00 +18°C° 0 mm 2 mps 753 mmHg 71%
    21:00 +17°C° 0 mm 2 mps 753 mmHg 74%
    22:00 +17°C° 0 mm 2 mps 753 mmHg 76%
    23:00 +16°C° 0 mm 2 mps 753 mmHg 79%

    26 April, Friday

    Time Temperature Precipitation Wind Pressure Humidity
    00:00 +15°C° 0 mm 2 mps 753 mmHg 81%
    01:00 +15°C° 0 mm 2 mps 753 mmHg 83%
    02:00 +14°C° 0 mm 2 mps 752 mmHg 85%
    03:00 +14°C° 0 mm 2 mps 752 mmHg 87%
    04:00 +14°C° 0 mm 2 mps 752 mmHg 88%
    05:00 +14°C° 0 mm 3 mps 752 mmHg 82%
    06:00 +16°C° 0 mm 3 mps 752 mmHg 77%
    07:00 +18°C° 0 mm 3 mps 751 mmHg 71%
    08:00 +20°C° 0 mm 3 mps 751 mmHg 65%
    09:00 +22°C° 0 mm 4 mps 751 mmHg 58%
    10:00 +25°C° 0 mm 4 mps 751 mmHg 52%
    11:00 +26°C° 0 mm 4 mps 750 mmHg 49%
    12:00 +26°C° 0 mm 4 mps 750 mmHg 47%
    13:00 +27°C° 0 mm 3 mps 749 mmHg 44%
    14:00 +27°C° 0 mm 3 mps 749 mmHg 46%
    15:00 +26°C° 0 mm 3 mps 749 mmHg 48%
    16:00 +26°C° 0 mm 2 mps 748 mmHg 51%
    17:00 +24°C° 0 mm 2 mps 748 mmHg 55%
    18:00 +23°C° 0 mm 1 mps 748 mmHg 59%
    19:00 +22°C° 0 mm 1 mps 748 mmHg 63%
    20:00 +21°C° 0 mm 1 mps 748 mmHg 66%
    21:00 +20°C° 0 mm 1 mps 748 mmHg 68%
    22:00 +19°C° 0 mm 1 mps 748 mmHg 71%
    23:00 +19°C° 0 mm 1 mps 748 mmHg 72%

    27 April, Saturday

    Time Temperature Precipitation Wind Pressure Humidity
    00:00 +18°C° 0 mm 1 mps 747 mmHg 73%
    01:00 +18°C° 0 mm 1 mps 747 mmHg 74%
    02:00 +16°C° 0 mm 1 mps 747 mmHg 78%
    03:00 +16°C° 0 mm 2 mps 747 mmHg 81%
    04:00 +15°C° 0 mm 2 mps 747 mmHg 85%
    05:00 +16°C° 0.5 mm 3 mps 747 mmHg 85%
    06:00 +16°C° 0.5 mm 3 mps 747 mmHg 86%
    07:00 +15°C° 0.5 mm 4 mps 747 mmHg 87%
    08:00 +15°C° 0.5 mm 4 mps 748 mmHg 85%
    09:00 +15°C° 0.5 mm 4 mps 748 mmHg 83%
    10:00 +17°C° 0.5 mm 4 mps 748 mmHg 82%
    11:00 +15°C° 0 mm 5 mps 748 mmHg 81%
    12:00 +15°C° 0 mm 5 mps 749 mmHg 80%
    13:00 +14°C° 0 mm 6 mps 749 mmHg 79%
    14:00 +13°C° 0.1 mm 6 mps 749 mmHg 79%
    15:00 +11°C° 0.1 mm 6 mps 749 mmHg 78%
    16:00 +10°C° 0.1 mm 6 mps 749 mmHg 78%
    17:00 +10°C° 0 mm 6 mps 750 mmHg 75%
    18:00 +10°C° 0 mm 5 mps 750 mmHg 72%
    19:00 +9°C° 0 mm 5 mps 750 mmHg 70%
    20:00 +9°C° 0 mm 5 mps 751 mmHg 71%
    21:00 +10°C° 0 mm 4 mps 751 mmHg 72%
    22:00 +10°C° 0 mm 4 mps 751 mmHg 73%
    23:00 +10°C° 0 mm 4 mps 751 mmHg 76%

    28 April, Sunday

    Time Temperature Precipitation Wind Pressure Humidity
    00:00 +8°C° 0 mm 4 mps 751 mmHg 80%
    01:00 +8°C° 0 mm 4 mps 751 mmHg 83%
    02:00 +8°C° 0 mm 4 mps 752 mmHg 85%
    03:00 +8°C° 0 mm 4 mps 752 mmHg 88%
    04:00 +9°C° 0 mm 3 mps 752 mmHg 90%
    05:00 +8°C° 0 mm 4 mps 752 mmHg 86%
    06:00 +10°C° 0 mm 4 mps 752 mmHg 82%
    07:00 +11°C° 0 mm 4 mps 753 mmHg 78%
    08:00 +12°C° 0 mm 5 mps 753 mmHg 71%
    09:00 +13°C° 0 mm 5 mps 753 mmHg 63%
    10:00 +15°C° 0 mm 5 mps 754 mmHg 56%
    11:00 +16°C° 0 mm 5 mps 754 mmHg 52%
    12:00 +18°C° 0 mm 4 mps 754 mmHg 48%
    13:00 +19°C° 0 mm 4 mps 754 mmHg 45%
    14:00 +18°C° 0 mm 4 mps 754 mmHg 45%
    15:00 +18°C° 0 mm 4 mps 754 mmHg 45%
    16:00 +18°C° 0 mm 3 mps 754 mmHg 46%
    17:00 +17°C° 0.1 mm 3 mps 754 mmHg 54%
    18:00 +14°C° 0.1 mm 3 mps 754 mmHg 62%
    19:00 +13°C° 0.1 mm 2 mps 755 mmHg 70%
    20:00 +12°C° 0 mm 2 mps 755 mmHg 73%
    21:00 +10°C° 0 mm 2 mps 755 mmHg 77%
    22:00 +9°C° 0 mm 2 mps 755 mmHg 80%
    23:00 +9°C° 0 mm 2 mps 756 mmHg 82%
    Show more